カタログに戻る

ARIANE 44LP DEB

運用中HEO
NORAD 27048·DEBRIS·🇫🇷 France

打ち上げ Aug 8, 1989 から Guiana Space Centre

Loading…

次のパス (今後24時間)

TLE

最新Source: Space-Track

元期: Sep 14, 2026, 11:11 UTC

1 27048U 89062L   26257.46642258  .00057573  00000-0  83654-2 0  9990
2 27048   8.3999 336.2556 5554080 208.0178 105.4987  4.73882823311334

AllMySatでARIANE 44LP DEBをリアルタイム追跡

Download on the App Store